| time (UTC) | temp C | wind direction | speed KPH | gust KPH | rain 1hr cm | rain 24hr cm | rain mn cm | humidity % | barometer mb |
| 20260509161535 | 13 | 42 | 1.6 | 4.8 | 0.00 | 0.00 | 0.00 | 60 | 1020.2 |
| 20260509160028 | 13 | 34 | 0.0 | 4.8 | 0.00 | 0.00 | 0.00 | 59 | 1020.2 |
| 20260509154524 | 12 | 66 | 0.0 | 4.8 | 0.00 | 0.00 | 0.00 | 54 | 1020.3 |
| 20260509153021 | 12 | 69 | 1.6 | 4.8 | 0.00 | 0.00 | 0.00 | 49 | 1020.5 |
| 20260509151514 | 11 | 61 | 1.6 | 6.4 | 0.00 | 0.00 | 0.00 | 45 | 1020.8 |
| 20260509150010 | 11 | 360 | 0.0 | 8.0 | 0.00 | 0.00 | 0.00 | 37 | 1020.9 |
| 20260509144506 | 10 | 293 | 1.6 | 4.8 | 0.00 | 0.00 | 0.00 | 19 | 1020.9 |
| 20260509143003 | 9 | 282 | 0.0 | 3.2 | 0.00 | 0.00 | 0.00 | 100 | 1020.6 |
| 20260509141557 | 8 | 281 | 0.0 | 0.0 | 0.00 | 0.00 | 0.00 | 100 | 1020.7 |
| 20260509140052 | 7 | 281 | 0.0 | 1.6 | 0.00 | 0.00 | 0.00 | 100 | 1020.7 |
| 20260509134549 | 6 | 282 | 0.0 | 0.0 | 0.00 | 0.00 | 0.00 | 4 | 1020.7 |
| 20260509133047 | 6 | 282 | 0.0 | 1.6 | 0.00 | 0.00 | 0.00 | 11 | 1020.7 |
| 20260509131542 | 6 | 282 | 0.0 | 1.6 | 0.00 | 0.00 | 0.00 | 14 | 1020.6 |
| 20260509130037 | 6 | 281 | 0.0 | 0.0 | 0.00 | 0.00 | 0.00 | 16 | 1020.6 |
| 20260509124547 | 6 | 281 | 0.0 | 1.6 | 0.00 | 0.00 | 0.00 | 17 | 1020.8 |
| 20260509123031 | 6 | 281 | 0.0 | 1.6 | 0.00 | 0.00 | 0.00 | 18 | 1020.8 |
| 20260509121533 | 6 | 281 | 0.0 | 1.6 | 0.00 | 0.00 | 0.00 | 21 | 1020.9 |
| 20260509120027 | 7 | 281 | 0.0 | 0.0 | 0.00 | 0.00 | 0.00 | 20 | 1020.9 |
| 20260509114525 | 7 | 281 | 0.0 | 0.0 | 0.00 | 0.00 | 0.00 | 22 | 1021.0 |
| 20260509113024 | 7 | 281 | 0.0 | 0.0 | 0.00 | 0.00 | 0.00 | 22 | 1021.0 |
| 20260509111523 | 7 | 281 | 0.0 | 0.0 | 0.00 | 0.00 | 0.00 | 23 | 1020.9 |
| 20260509110019 | 7 | 281 | 0.0 | 0.0 | 0.00 | 0.00 | 0.00 | 25 | 1021.1 |
| 20260509104529 | 7 | 281 | 0.0 | 0.0 | 0.00 | 0.00 | 0.00 | 25 | 1021.2 |
| 20260509103016 | 7 | 281 | 0.0 | 1.6 | 0.00 | 0.00 | 0.00 | 26 | 1021.3 |
| 20260509101517 | 8 | 281 | 0.0 | 0.0 | 0.00 | 0.00 | 0.00 | 29 | 1021.3 |
| 20260509100024 | 8 | 281 | 0.0 | 0.0 | 0.00 | 0.00 | 0.00 | 34 | 1021.3 |
| 20260509094517 | 8 | 281 | 0.0 | 0.0 | 0.00 | 0.00 | 0.00 | 35 | 1021.4 |
| 20260509093007 | 8 | 281 | 0.0 | 0.0 | 0.00 | 0.00 | 0.00 | 37 | 1021.4 |
| 20260509091505 | 8 | 281 | 0.0 | 0.0 | 0.00 | 0.00 | 0.00 | 39 | 1021.5 |
| 20260509090002 | 9 | 281 | 0.0 | 0.0 | 0.00 | 0.00 | 0.00 | 42 | 1021.5 |
| 20260509084602 | 9 | 281 | 0.0 | 0.0 | 0.00 | 0.00 | 0.00 | 44 | 1021.6 |
| 20260509083056 | 9 | 281 | 0.0 | 0.0 | 0.00 | 0.00 | 0.00 | 48 | 1021.7 |
| 20260509081553 | 10 | 281 | 0.0 | 0.0 | 0.00 | 0.00 | 0.00 | 52 | 1021.9 |
| 20260509080056 | 10 | 281 | 0.0 | 0.0 | 0.00 | 0.00 | 0.00 | 56 | 1021.8 |
| 20260509074548 | 10 | 281 | 0.0 | 0.0 | 0.00 | 0.00 | 0.00 | 58 | 1021.8 |
| 20260509073051 | 11 | 281 | 0.0 | 0.0 | 0.00 | 0.00 | 0.00 | 60 | 1021.9 |
| 20260509071552 | 11 | 281 | 0.0 | 0.0 | 0.00 | 0.00 | 0.00 | 63 | 1021.9 |
| 20260509070042 | 11 | 281 | 0.0 | 3.2 | 0.00 | 0.00 | 0.00 | 65 | 1021.9 |
| 20260509064540 | 12 | 281 | 0.0 | 0.0 | 0.00 | 0.00 | 0.00 | 66 | 1021.9 |
| 20260509063041 | 12 | 281 | 0.0 | 1.6 | 0.00 | 0.00 | 0.00 | 67 | 1021.9 |
| 20260509061547 | 12 | 281 | 0.0 | 1.6 | 0.00 | 0.00 | 0.00 | 69 | 1021.9 |
| 20260509060039 | 12 | 281 | 0.0 | 3.2 | 0.00 | 0.00 | 0.00 | 69 | 1021.9 |
| 20260509054548 | 13 | 281 | 0.0 | 3.2 | 0.00 | 0.00 | 0.00 | 69 | 1022.1 |
| 20260509053038 | 13 | 273 | 0.0 | 6.4 | 0.00 | 0.00 | 0.00 | 69 | 1021.9 |
| 20260509051539 | 13 | 250 | 1.6 | 6.4 | 0.00 | 0.00 | 0.00 | 68 | 1021.8 |
| 20260509050049 | 14 | 216 | 1.6 | 6.4 | 0.00 | 0.00 | 0.00 | 68 | 1021.7 |
| 20260509044545 | 14 | 183 | 0.0 | 4.8 | 0.00 | 0.00 | 0.00 | 68 | 1021.7 |
| 20260509043036 | 14 | 182 | 0.0 | 1.6 | 0.00 | 0.00 | 0.00 | 68 | 1021.6 |
| 20260509041536 | 15 | 184 | 0.0 | 3.2 | 0.00 | 0.00 | 0.00 | 68 | 1021.3 |
| 20260509040038 | 15 | 225 | 0.0 | 3.2 | 0.00 | 0.00 | 0.00 | 67 | 1021.3 |
| 20260509034540 | 15 | 256 | 0.0 | 6.4 | 0.00 | 0.00 | 0.00 | 67 | 1021.2 |
| 20260509033035 | 15 | 295 | 0.0 | 4.8 | 0.00 | 0.00 | 0.00 | 66 | 1021.1 |
| 20260509031535 | 16 | 289 | 0.0 | 4.8 | 0.00 | 0.00 | 0.00 | 65 | 1021.0 |
| 20260509030035 | 16 | 299 | 0.0 | 8.0 | 0.00 | 0.00 | 0.00 | 64 | 1020.8 |
| 20260509024533 | 17 | 284 | 1.6 | 6.4 | 0.00 | 0.00 | 0.00 | 61 | 1020.7 |
| 20260509023038 | 17 | 288 | 1.6 | 4.8 | 0.00 | 0.00 | 0.00 | 59 | 1020.6 |
| 20260509021533 | 18 | 273 | 0.0 | 8.0 | 0.00 | 0.00 | 0.00 | 58 | 1020.6 |
| 20260509020031 | 18 | 299 | 0.0 | 4.8 | 0.00 | 0.00 | 0.00 | 56 | 1020.6 |
| 20260509014531 | 18 | 302 | 1.6 | 8.0 | 0.00 | 0.00 | 0.00 | 57 | 1020.7 |
| 20260509013045 | 18 | 265 | 1.6 | 6.4 | 0.00 | 0.00 | 0.00 | 55 | 1020.8 |
| 20260509011533 | 19 | 284 | 1.6 | 9.7 | 0.00 | 0.00 | 0.00 | 55 | 1020.8 |
| 20260509010030 | 19 | 313 | 0.0 | 4.8 | 0.00 | 0.00 | 0.00 | 56 | 1021.0 |
| 20260509004532 | 18 | 272 | 3.2 | 8.0 | 0.00 | 0.00 | 0.00 | 55 | 1021.1 |
| 20260509003032 | 18 | 278 | 3.2 | 12.9 | 0.00 | 0.00 | 0.00 | 54 | 1021.1 |
| 20260509001528 | 19 | 276 | 1.6 | 12.9 | 0.00 | 0.00 | 0.00 | 53 | 1021.1 |
| 20260509000027 | 18 | 226 | 0.0 | 12.9 | 0.00 | 0.00 | 0.00 | 53 | 1021.1 |
| 20260508234527 | 19 | 274 | 4.8 | 9.7 | 0.00 | 0.00 | 0.00 | 51 | 1021.2 |
| 20260508233026 | 19 | 223 | 0.0 | 6.4 | 0.00 | 0.00 | 0.00 | 51 | 1021.3 |
| 20260508231525 | 18 | 292 | 1.6 | 8.0 | 0.00 | 0.00 | 0.00 | 53 | 1021.1 |
| 20260508230045 | 18 | 17 | 0.0 | 6.4 | 0.00 | 0.00 | 0.00 | 55 | 1021.3 |
| 20260508224551 | 19 | 287 | 3.2 | 9.7 | 0.00 | 0.00 | 0.00 | 53 | 1021.3 |
| 20260508223030 | 18 | 291 | 3.2 | 8.0 | 0.00 | 0.00 | 0.00 | 53 | 1021.4 |
| 20260508221520 | 18 | 148 | 3.2 | 8.0 | 0.00 | 0.00 | 0.00 | 54 | 1021.5 |
| 20260508220018 | 17 | 207 | 1.6 | 11.3 | 0.00 | 0.00 | 0.00 | 55 | 1021.6 |
| 20260508214517 | 17 | 202 | 1.6 | 11.3 | 0.00 | 0.00 | 0.00 | 54 | 1021.7 |
| 20260508213015 | 17 | 209 | 1.6 | 6.4 | 0.00 | 0.00 | 0.00 | 55 | 1021.6 |
| 20260508211514 | 17 | 254 | 4.8 | 12.9 | 0.00 | 0.00 | 0.00 | 54 | 1021.7 |
| 20260508210010 | 16 | 157 | 3.2 | 11.3 | 0.00 | 0.00 | 0.00 | 55 | 1021.6 |
| 20260508204516 | 16 | 243 | 3.2 | 14.5 | 0.00 | 0.00 | 0.00 | 54 | 1021.6 |
| 20260508203007 | 16 | 182 | 3.2 | 11.3 | 0.00 | 0.00 | 0.00 | 54 | 1021.7 |
| 20260508201504 | 15 | 301 | 1.6 | 14.5 | 0.00 | 0.00 | 0.00 | 54 | 1021.8 |
| 20260508200004 | 15 | 192 | 1.6 | 8.0 | 0.00 | 0.00 | 0.00 | 55 | 1021.9 |
| 20260508194601 | 15 | 174 | 4.8 | 12.9 | 0.00 | 0.00 | 0.00 | 58 | 1022.0 |
| 20260508193134 | 15 | 294 | 1.6 | 11.3 | 0.00 | 0.00 | 0.00 | 57 | 1022.1 |
| 20260508191558 | 14 | 117 | 1.6 | 9.7 | 0.00 | 0.00 | 0.00 | 59 | 1022.1 |
| 20260508190058 | 13 | 216 | 3.2 | 11.3 | 0.00 | 0.00 | 0.00 | 61 | 1022.2 |
| 20260508184622 | 13 | 300 | 3.2 | 8.0 | 0.00 | 0.00 | 0.00 | 62 | 1022.3 |
| 20260508183057 | 13 | 309 | 6.4 | 12.9 | 0.00 | 0.00 | 0.00 | 61 | 1022.2 |
| 20260508181550 | 12 | 271 | 3.2 | 11.3 | 0.00 | 0.00 | 0.00 | 63 | 1022.2 |
| 20260508180056 | 12 | 188 | 3.2 | 11.3 | 0.00 | 0.00 | 0.00 | 64 | 1022.1 |
| 20260508174603 | 11 | 229 | 3.2 | 8.0 | 0.00 | 0.00 | 0.00 | 65 | 1022.1 |
| 20260508173044 | 12 | 205 | 3.2 | 12.9 | 0.00 | 0.00 | 0.00 | 64 | 1021.9 |
| 20260508171604 | 11 | 192 | 1.6 | 8.0 | 0.00 | 0.00 | 0.00 | 66 | 1021.8 |
| 20260508170041 | 11 | 294 | 4.8 | 9.7 | 0.00 | 0.00 | 0.00 | 65 | 1021.7 |
| 20260508164539 | 10 | 270 | 3.2 | 9.7 | 0.00 | 0.00 | 0.00 | 65 | 1021.6 |
| 20260508163036 | 10 | 234 | 1.6 | 9.7 | 0.00 | 0.00 | 0.00 | 65 | 1021.5 |